"Timestamp","TZ","WindDir_Mean (deg)","WindSpd_Mean (km/h)","WindSpd_Min (km/h)","WindSpd_Max (km/h)","Temp_Mean (deg)","RH_Mean (%)","MSLP_Mean (hPa)","Rain_Acc (mm)","Rain_Intensity (mm/h)","Hail_Acc (hits/cm2)","Hail_Intensity (hits/cm2hr)","Solar_Mean (W/m2)"
2023/06/05 00:00:00.012,n,166,3.24,1.44,5.76,16.700002,83.2,1027.12,0,0,0,0,0.026131
2023/06/05 00:01:00.001,n,315,0.72,0.36,1.44,16.700002,83.1,1027.12,0,0,0,0,0.026131
2023/06/05 00:02:00.002,n,158,1.8,1.08,4.32,16.700002,83.1,1027.12,0,0,0,0,0.029602
2023/06/05 00:03:00.001,n,177,5.04,3.24,7.56,16.700002,83.2,1027.12,0,0,0,0,0.024376
2023/06/05 00:04:00.001,n,294,1.8,1.44,2.16,16.700002,83.2,1027.12,0,0,0,0,0.030479
2023/06/05 00:05:00.003,n,139,4.68,3.24,6.12,16.700002,83.2,1027.12,0,0,0,0,0.029602
2023/06/05 00:06:00.004,n,212,4.32,2.16,8.28,16.700002,83.2,1027.12,0,0,0,0,0.029602
2023/06/05 00:07:00.006,n,176,3.6,2.88,5.04,16.700002,83.2,1027.12,0,0,0,0,0.02697
2023/06/05 00:08:00.008,n,225,2.88,2.16,3.6,16.700002,83.1,1027.12,0,0,0,0,0.029602
2023/06/05 00:09:00.012,n,258,2.16,0.36,4.32,16.700002,83.3,1027.12,0,0,0,0,0.028725
2023/06/05 00:10:00.001,n,148,1.08,1.08,1.08,16.8,83.2,1027.12,0,0,0,0,0.028725
2023/06/05 00:11:00.003,n,205,7.2,6.12,10.440002,16.8,83.4,1027.12,0,0,0,0,0.026131
2023/06/05 00:12:00.001,n,204,3.6,2.88,5.04,16.8,83.3,1027.12,0,0,0,0,0.024376
2023/06/05 00:13:00.002,n,138,4.32,2.16,6.48,16.8,83.2,1027.12,0,0,0,0,0.02697
2023/06/05 00:14:00.002,n,247,2.52,1.8,3.96,16.8,83.2,1027.12,0,0,0,0,0.024376
2023/06/05 00:15:00.006,n,204,3.24,1.08,7.56,16.8,83.2,1027.12,0,0,0,0,0.026131
2023/06/05 00:16:00.006,n,175,7.2,3.24,8.64,16.8,83.1,1027.12,0,0,0,0,0.025253
2023/06/05 00:17:00.007,n,204,3.6,3.24,3.96,16.8,83.1,1027.12,0,0,0,0,0.029602
2023/06/05 00:18:00.009,n,191,6.12,3.6,7.56,16.8,83.1,1027.12,0,0,0,0,0.029602
2023/06/05 00:19:00.001,n,163,6.84,3.6,8.28,16.9,83,1027.12,0,0,0,0,0.029602
2023/06/05 00:20:00.001,n,181,9.72,7.2,13.32,16.9,83,1027.02,0,0,0,0,0.029602
2023/06/05 00:21:00.001,n,197,7.56,6.48,11.52,16.9,82.9,1027.02,0,0,0,0,0.027847
2023/06/05 00:22:00.001,n,167,10.440002,6.12,13.68,16.9,82.8,1027.02,0,0,0,0,0.032196
2023/06/05 00:23:00.001,n,188,5.4,2.88,7.2,16.9,82.8,1027.02,0,0,0,0,0.028725
2023/06/05 00:24:00.001,n,168,6.12,3.24,10.440002,16.9,82.7,1027.02,0,0,0,0,0.030479
2023/06/05 00:25:00.003,n,130,4.32,3.24,5.04,16.9,82.6,1027.12,0,0,0,0,0.030479
2023/06/05 00:26:00.011,n,161,5.04,2.88,10.440002,17,82.5,1027.12,0,0,0,0,0.02697
2023/06/05 00:27:00.013,n,139,3.96,3.24,4.68,16.9,82.5,1027.12,0,0,0,0,0.030479
2023/06/05 00:28:00.001,n,211,4.68,3.24,6.84,16.9,82.4,1027.12,0,0,0,0,0.029602
2023/06/05 00:29:00.002,n,162,3.6,2.88,8.28,16.9,82.5,1027.12,0,0,0,0,0.030479
2023/06/05 00:30:00.004,n,121,2.16,1.08,5.4,16.9,82.4,1027.12,0,0,0,0,0.032196
2023/06/05 00:31:00.008,n,184,3.6,1.08,6.84,16.9,82.3,1027.02,0,0,0,0,0.030479
2023/06/05 00:32:00.001,n,339,2.52,1.08,3.6,16.9,82.4,1027.02,0,0,0,0,0.031319
2023/06/05 00:33:00.002,n,143,3.6,2.52,4.32,16.9,82.3,1027.02,0,0,0,0,0.033112
2023/06/05 00:34:00.008,n,152,5.04,4.68,5.4,16.8,82.4,1027.02,0,0,0,0,0.033112
2023/06/05 00:35:00.011,n,153,3.24,2.52,6.48,16.8,82.4,1027.02,0,0,0,0,0.033951
2023/06/05 00:36:00.014,n,192,5.04,3.96,6.48,16.8,82.4,1027.02,0,0,0,0,0.034828
2023/06/05 00:37:00.001,n,123,1.44,1.08,2.16,16.8,82.4,1027.02,0,0,0,0,0.033951
2023/06/05 00:38:00.002,n,175,2.88,1.08,5.76,16.8,82.5,1027.02,0,0,0,0,0.030479
2023/06/05 00:39:00.001,n,308,1.08,1.08,1.8,16.8,82.5,1027.02,0,0,0,0,0.033112
2023/06/05 00:40:00.002,n,109,1.08,0.72,1.44,16.8,82.6,1027.02,0,0,0,0,0.035706
2023/06/05 00:41:00.006,n,116,1.08,1.08,1.8,16.8,82.7,1027.02,0,0,0,0,0.033951
2023/06/05 00:42:00.006,n,195,0.36,0,0.72,16.8,82.6,1027.02,0,0,0,0,0.033951
2023/06/05 00:43:00.009,n,204,1.44,0.36,5.4,16.8,82.6,1027.02,0,0,0,0,0.036545
2023/06/05 00:44:00.010,n,176,5.04,2.88,7.56,16.8,82.6,1027.02,0,0,0,0,0.033951
2023/06/05 00:45:00.016,n,164,2.52,1.8,6.84,16.8,82.5,1027.02,0,0,0,0,0.035706
2023/06/05 00:46:00.002,n,305,1.44,0.36,3.6,16.8,82.6,1027.02,0,0,0,0,0.037422
2023/06/05 00:47:00.001,n,119,0.72,0.72,0.72,16.9,82.7,1027.02,0,0,0,0,0.0383
2023/06/05 00:48:00.003,n,202,1.08,0.36,3.96,16.9,82.7,1027.02,0,0,0,0,0.039177
2023/06/05 00:49:00.015,n,273,1.8,0.72,4.68,16.9,82.7,1027.02,0,0,0,0,0.04528
2023/06/05 00:50:00.010,n,103,1.08,0.36,1.44,16.9,82.6,1027.02,0,0,0,0,0.047874
2023/06/05 00:51:00.013,n,163,2.52,1.08,5.04,16.9,82.5,1027.02,0,0,0,0,0.026093
2023/06/05 00:52:00.008,n,351,2.88,1.8,3.24,16.9,82.5,1027.02,0,0,0,0,0.033073
2023/06/05 00:53:00.001,n,253,2.88,0.36,7.2,16.9,82.5,1027.02,0,0,0,0,0.035667
2023/06/05 00:54:00.024,n,187,2.52,1.44,4.32,16.9,82.3,1027.02,0,0,0,0,0.041771
2023/06/05 00:55:00.001,n,288,1.8,1.44,2.16,16.9,82.4,1027.02,0,0,0,0,0.041771
2023/06/05 00:56:00.001,n,205,2.88,1.44,6.12,16.9,82.4,1027.02,0,0,0,0,0.043526
2023/06/05 00:57:00.001,n,212,1.8,1.8,2.52,16.9,82.3,1027.02,0,0,0,0,0.049591
2023/06/05 00:58:00.002,n,167,2.16,0.36,4.68,16.9,82.3,1027.02,0,0,0,0,0.025253
2023/06/05 00:59:00.001,n,247,0.36,0,0.36,16.9,82.2,1027.02,0,0,0,0,0.033112
2023/06/05 01:00:00.015,n,179,2.52,1.44,5.4,17,82.1,1027.02,0,0,0,0,0.033112
2023/06/05 01:01:00.020,n,66,1.44,0.36,5.4,17,82.1,1027.02,0,0,0,0,0.0383
2023/06/05 01:02:00.015,n,124,1.44,0.72,2.52,17,82,1027.02,0,0,0,0,0.036583
2023/06/05 01:03:00.017,n,166,3.96,1.8,6.12,16.9,81.8,1027.02,0,0,0,0,0.040894
2023/06/05 01:04:00.001,n,184,3.96,3.24,7.56,16.9,81.6,1027.02,0,0,0,0,0.041809
2023/06/05 01:05:00.002,n,87,1.8,0.36,5.04,16.9,81.6,1027.02,0,0,0,0,0.04528
2023/06/05 01:06:00.001,n,167,6.12,5.04,10.8,16.9,81.5,1027.02,0,0,0,0,0.04612
2023/06/05 01:07:00.001,n,209,4.68,3.24,6.84,16.9,81.5,1027.02,0,0,0,0,0.052261
2023/06/05 01:08:00.004,n,170,3.6,2.52,7.92,16.9,81.4,1027.02,0,0,0,0,0.024376
2023/06/05 01:09:00.003,n,161,3.6,3.6,3.96,16.9,81.4,1027.02,0,0,0,0,0.030479
2023/06/05 01:10:00.017,n,158,5.04,4.68,5.4,16.9,81.4,1027.02,0,0,0,0,0.034866
2023/06/05 01:11:00.006,n,182,4.32,3.24,5.76,16.9,81.4,1027.02,0,0,0,0,0.030479
2023/06/05 01:12:00.012,n,170,2.52,2.16,3.24,16.9,81.5,1027.02,0,0,0,0,0.039177
2023/06/05 01:13:00.001,n,166,9.72,6.12,11.88,16.9,81.6,1027.02,0.01,0,0,0,0.0383
2023/06/05 01:14:00.003,n,162,7.2,5.04,10.440002,16.9,81.6,1027.02,0.01,0.1,0,0,0.0383
2023/06/05 01:15:00.013,n,139,2.16,1.08,2.88,17,81.7,1027.02,0.01,0,0,0,0.035706
2023/06/05 01:16:00.001,n,168,4.32,3.96,4.32,16.9,81.7,1027.02,0.01,0.1,0,0,0.0383
2023/06/05 01:17:00.005,n,162,5.04,3.6,6.12,17,81.9,1027.02,0.01,0,0,0,0.039177
2023/06/05 01:18:00.011,n,193,3.96,2.88,4.68,17,81.9,1027.02,0.05,2.2,0,0,0.0383
2023/06/05 01:19:00.003,n,174,3.96,2.88,5.4,17,82.1,1027.02,0.09,2.7,0,0,0.042648
2023/06/05 01:20:00.010,n,220,2.88,2.52,3.24,17,82.3,1026.92,0.12,1.4,0,0,0.040932
2023/06/05 01:21:00.009,n,208,7.2,6.48,9,17,82.4,1026.92,0.12,0.4,0,0,0.041809
2023/06/05 01:22:00.001,n,185,6.12,5.4,6.84,17,82.4,1026.92,0.13,0.1,0,0,0.03746
2023/06/05 01:23:00.004,n,204,6.84,5.76,7.56,17,82.6,1026.92,0.13,0,0,0,0.041809
2023/06/05 01:24:00.001,n,207,4.68,3.96,5.76,16.9,82.7,1026.92,0.13,0,0,0,0.041809
2023/06/05 01:25:00.001,n,238,3.6,3.24,3.96,16.9,82.8,1027.02,0.13,0,0,0,0.042648
2023/06/05 01:26:00.004,n,228,5.04,4.32,6.12,16.9,82.8,1027.02,0.13,0.1,0,0,0.042648
2023/06/05 01:27:00.009,n,257,2.16,1.8,2.52,16.9,83.1,1027.02,0.13,0,0,0,0.043526
2023/06/05 01:28:00.008,n,281,2.16,1.44,2.52,17,83.3,1027.02,0.13,0,0,0,0.043526
2023/06/05 01:29:00.011,n,167,0.72,0.72,1.08,17,83.3,1027.02,0.13,0,0,0,0.043526
2023/06/05 01:30:00.009,n,174,1.8,1.8,2.16,17,83.2,1027.02,0.13,0,0,0,0.043526
2023/06/05 01:31:00.001,n,175,6.12,5.4,7.56,17,83.1,1026.92,0.13,0.1,0,0,0.041809
2023/06/05 01:32:00.002,n,196,7.92,7.56,8.64,16.9,83.1,1026.92,0.14,0.3,0,0,0.04528
2023/06/05 01:33:00.001,n,335,2.16,1.44,3.24,16.9,83.4,1026.92,0.14,0,0,0,0.043526
2023/06/05 01:34:00.009,n,214,1.44,0.36,2.16,16.9,83.5,1026.92,0.14,0.1,0,0,0.044441
2023/06/05 01:35:00.003,n,304,1.8,0.72,2.88,16.9,83.7,1026.92,0.15,0.7,0,0,0.043526
2023/06/05 01:36:00.001,n,234,3.6,3.24,3.6,16.9,83.8,1026.92,0.15,0,0,0,0.044441
2023/06/05 01:37:00.022,n,136,1.08,0.72,1.08,16.9,83.8,1026.92,0.15,0,0,0,0.042648
2023/06/05 01:38:00.003,n,248,4.68,4.32,4.68,16.9,83.6,1026.92,0.15,0,0,0,0.044441
2023/06/05 01:39:00.007,n,203,1.8,1.08,1.8,16.9,83.5,1026.82,0.15,0,0,0,0.040932
2023/06/05 01:40:00.001,n,269,3.6,3.24,4.32,16.9,83.6,1026.82,0.15,0,0,0,0.042648
2023/06/05 01:41:00.005,n,265,5.4,5.04,6.12,16.8,83.5,1026.72,0.15,0,0,0,0.041809
2023/06/05 01:42:00.001,n,269,3.24,2.52,3.6,16.8,83.5,1026.72,0.15,0,0,0,0.043526
2023/06/05 01:43:00.011,n,241,4.32,3.96,5.04,16.8,83.7,1026.62,0.15,0,0,0,0.042648
2023/06/05 01:44:00.012,n,260,6.12,5.76,7.2,16.8,83.7,1026.62,0.15,0,0,0,0.042648
2023/06/05 01:45:00.010,n,275,6.12,5.4,6.48,16.700002,83.8,1026.62,0.15,0,0,0,0.042648
2023/06/05 01:46:00.013,n,280,6.12,5.4,6.84,16.700002,84,1026.62,0.15,0,0,0,0.044441
2023/06/05 01:47:00.009,n,279,5.4,4.68,6.84,16.8,84.3,1026.52,0.15,0,0,0,0.044441
2023/06/05 01:48:00.003,n,284,4.32,3.6,4.68,16.8,84,1026.52,0.15,0,0,0,0.046158
2023/06/05 01:49:00.004,n,273,6.12,6.12,6.84,16.700002,84.2,1026.52,0.15,0,0,0,0.042648
2023/06/05 01:50:00.001,n,268,2.16,0.72,3.24,16.700002,84.2,1026.52,0.15,0,0,0,0.04528
2023/06/05 01:51:00.003,n,268,3.96,3.6,3.96,16.700002,84.3,1026.52,0.15,0,0,0,0.046158
2023/06/05 01:52:00.005,n,269,3.96,3.6,5.04,16.8,85,1026.52,0.15,0,0,0,0.043526
2023/06/05 01:53:00.007,n,272,5.04,4.68,5.4,16.8,84.5,1026.52,0.15,0,0,0,0.043526
2023/06/05 01:54:00.004,n,244,3.96,3.6,4.68,16.8,84.4,1026.52,0.15,0,0,0,0.043526
2023/06/05 01:55:00.003,n,266,1.8,1.44,2.16,16.8,84.4,1026.52,0.15,0,0,0,0.043526
2023/06/05 01:56:00.014,n,264,1.8,1.8,2.16,16.700002,84.4,1026.52,0.15,0,0,0,0.044441
2023/06/05 01:57:00.018,n,265,3.24,2.16,3.6,16.700002,84.7,1026.52,0.15,0,0,0,0.047035
2023/06/05 01:58:00.002,n,315,1.8,1.44,2.16,16.8,84.8,1026.52,0.15,0,0,0,0.043526
2023/06/05 01:59:00.005,n,26,1.8,1.44,2.16,16.8,84.9,1026.52,0.15,0,0,0,0.04528
2023/06/05 02:00:00.001,n,157,1.08,0.36,2.16,16.8,85,1026.52,0.15,0,0,0,0.039177
2023/06/05 02:01:00.009,n,93,3.24,2.52,3.24,16.8,84.9,1026.52,0.15,0,0,0,0.042648
2023/06/05 02:02:00.008,n,119,1.8,1.44,2.16,16.8,84.7,1026.52,0.15,0,0,0,0.040054
2023/06/05 02:03:00.005,n,202,0.36,0.36,0.72,16.8,84.8,1026.52,0.15,0,0,0,0.042648
2023/06/05 02:04:00.011,n,141,0.36,0.36,0.72,16.8,84.8,1026.52,0.15,0,0,0,0.0383
2023/06/05 02:05:00.006,n,61,0.36,0,0.72,16.8,84.9,1026.52,0.15,0,0,0,0.040932
2023/06/05 02:06:00.016,n,128,1.44,0.72,2.16,16.8,85,1026.52,0.15,0,0,0,0.040054
2023/06/05 02:07:00.001,n,150,0.72,0.72,1.08,16.8,85,1026.52,0.15,0,0,0,0.040932
2023/06/05 02:08:00.003,n,177,1.08,0.72,1.44,16.8,85,1026.52,0.15,0,0,0,0.042648
2023/06/05 02:09:00.002,n,238,2.16,1.8,2.52,16.8,85,1026.52,0.15,0,0,0,0.040054
2023/06/05 02:10:00.012,n,100,0.72,0.72,1.44,16.8,85,1026.52,0.15,0,0,0,0.043526
2023/06/05 02:11:00.009,n,143,2.88,2.52,2.88,16.8,85.1,1026.52,0.15,0,0,0,0.039177
2023/06/05 02:12:00.005,n,148,5.4,5.04,5.4,16.8,85,1026.52,0.15,0,0,0,0.043526
2023/06/05 02:13:00.010,n,153,2.88,2.52,3.24,16.8,85,1026.52,0.15,0,0,0,0.039177
2023/06/05 02:14:00.008,n,174,2.88,2.52,3.24,16.8,85,1026.52,0.15,0,0,0,0.039177
2023/06/05 02:15:00.019,n,138,1.44,0.72,1.8,16.700002,85,1026.52,0.15,0,0,0,0.042648
2023/06/05 02:16:00.001,n,148,2.16,1.44,2.52,16.700002,85,1026.52,0.15,0,0,0,0.044441
2023/06/05 02:17:00.011,n,216,1.8,1.44,1.8,16.700002,85,1026.52,0.15,0,0,0,0.042648
2023/06/05 02:18:00.001,n,197,3.24,2.88,3.24,16.700002,85.1,1026.52,0.15,0,0,0,0.042648
2023/06/05 02:19:00.008,n,187,3.24,2.52,3.6,16.700002,85.2,1026.52,0.15,0,0,0,0.041809
2023/06/05 02:20:00.008,n,192,2.16,1.8,2.16,16.700002,85.2,1026.52,0.15,0,0,0,0.041809
2023/06/05 02:21:00.005,n,223,2.52,2.52,2.88,16.8,85.2,1026.52,0.15,0,0,0,0.044441
2023/06/05 02:22:00.001,n,192,2.88,2.52,3.24,16.8,85.2,1026.62,0.15,0,0,0,0.042648
2023/06/05 02:23:00.007,n,241,2.16,2.16,2.52,16.8,85.2,1026.62,0.15,0,0,0,0.041809
2023/06/05 02:24:00.015,n,229,2.16,1.8,2.52,16.8,85.2,1026.62,0.15,0,0,0,0.040932
2023/06/05 02:25:00.001,n,248,2.16,2.16,2.52,16.8,85.2,1026.62,0.15,0,0,0,0.043526
2023/06/05 02:26:00.002,n,256,3.24,3.24,3.24,16.8,85.3,1026.62,0.15,0,0,0,0.043526
2023/06/05 02:27:00.001,n,263,3.6,3.24,4.32,16.8,85.2,1026.62,0.15,0,0,0,0.042648
2023/06/05 02:28:00.002,n,249,2.88,2.52,3.24,16.8,85.2,1026.62,0.15,0,0,0,0.042648
2023/06/05 02:29:00.001,n,218,1.8,1.44,2.16,16.8,85.2,1026.62,0.15,0,0,0,0.042648
2023/06/05 02:30:00.005,n,153,4.32,3.96,4.68,16.8,85.3,1026.62,0.15,0,0,0,0.041809
2023/06/05 02:31:00.006,n,171,3.6,2.88,3.96,16.8,85.3,1026.62,0.15,0,0,0,0.046158
2023/06/05 02:32:00.013,n,226,2.16,1.44,2.52,16.8,85.3,1026.52,0.15,0,0,0,0.046158
2023/06/05 02:33:00.003,n,179,2.88,2.16,3.24,16.8,85.3,1026.52,0.15,0,0,0,0.041809
2023/06/05 02:34:00.010,n,211,1.44,1.08,1.44,16.8,85.3,1026.52,0.15,0,0,0,0.043526
2023/06/05 02:35:00.001,n,249,1.8,1.44,2.88,16.8,85.4,1026.52,0.15,0,0,0,0.047035
2023/06/05 02:36:00.003,n,277,2.16,1.44,3.6,16.8,85.4,1026.52,0.15,0,0,0,0.044441
2023/06/05 02:37:00.008,n,236,1.08,1.08,1.44,16.9,85.6,1026.52,0.15,0,0,0,0.046158
2023/06/05 02:38:00.005,n,208,1.8,1.08,2.16,16.9,85.4,1026.52,0.15,0,0,0,0.040054
2023/06/05 02:39:00.006,n,118,0.72,0.36,1.44,16.9,85.3,1026.52,0.15,0,0,0,0.046158
2023/06/05 02:40:00.012,n,240,0.72,0.36,1.08,16.9,85.3,1026.52,0.15,0,0,0,0.047035
2023/06/05 02:41:00.002,n,133,2.16,2.16,2.52,16.8,85.3,1026.52,0.15,0,0,0,0.044441
2023/06/05 02:42:00.005,n,264,2.88,2.88,3.6,16.8,85.3,1026.52,0.15,0,0,0,0.047035
2023/06/05 02:43:00.001,n,99,0.36,0,1.08,16.8,85.4,1026.52,0.15,0,0,0,0.047874
2023/06/05 02:44:00.001,n,222,1.8,1.44,2.16,16.8,85.4,1026.52,0.15,0,0,0,0.042648
2023/06/05 02:45:00.002,n,225,2.16,1.8,3.24,16.8,85.3,1026.52,0.15,0,0,0,0.04528
2023/06/05 02:46:00.001,n,0,0.72,0.36,0.72,16.8,85.2,1026.52,0.15,0,0,0,0.048752
2023/06/05 02:47:00.001,n,163,3.24,2.88,3.6,16.8,85.2,1026.52,0.15,0,0,0,0.048752
2023/06/05 02:48:00.005,n,186,1.8,1.44,2.16,16.8,85.2,1026.42,0.15,0,0,0,0.047035
2023/06/05 02:49:00.003,n,244,2.88,1.8,3.6,16.8,85.3,1026.42,0.15,0,0,0,0.048752
2023/06/05 02:50:00.015,n,189,3.6,2.52,3.96,16.8,85.3,1026.42,0.15,0,0,0,0.046158
2023/06/05 02:51:00.014,n,204,1.08,1.08,1.08,16.8,85.3,1026.32,0.15,0,0,0,0.042648
2023/06/05 02:52:00.002,n,261,1.08,0.72,1.8,16.8,85.3,1026.32,0.15,0,0,0,0.046158
2023/06/05 02:53:00.001,n,78,1.44,0.72,1.8,16.8,85.4,1026.32,0.15,0,0,0,0.048752
2023/06/05 02:54:00.002,n,230,1.8,1.44,1.8,16.8,85.4,1026.32,0.15,0,0,0,0.047035
2023/06/05 02:55:00.004,n,199,2.16,1.44,3.24,16.8,85.4,1026.32,0.15,0,0,0,0.043526
2023/06/05 02:56:00.023,n,180,2.52,1.8,2.88,16.8,85.4,1026.32,0.15,0,0,0,0.046158
2023/06/05 02:57:00.009,n,221,2.52,1.8,2.88,16.8,85.4,1026.32,0.15,0,0,0,0.044441
2023/06/05 02:58:00.008,n,191,2.52,1.8,2.88,16.700002,85.4,1026.32,0.15,0,0,0,0.044441
2023/06/05 02:59:00.015,n,215,1.8,1.08,2.16,16.700002,85.5,1026.32,0.15,0,0,0,0.042648
2023/06/05 03:00:00.002,n,104,1.44,1.08,1.8,16.700002,85.5,1026.32,0.15,0,0,0,0.04528
2023/06/05 03:01:00.001,n,109,0.72,0.36,1.44,16.8,85.6,1026.32,0.15,0,0,0,0.044441
2023/06/05 03:02:00.006,n,241,2.52,2.16,3.24,16.8,85.6,1026.32,0.15,0,0,0,0.046158
2023/06/05 03:03:00.001,n,138,1.8,1.44,2.52,16.8,85.5,1026.32,0.15,0,0,0,0.046158
2023/06/05 03:04:00.001,n,136,1.44,0.72,2.16,16.8,85.5,1026.42,0.15,0,0,0,0.047035
2023/06/05 03:05:00.001,n,234,1.8,1.44,2.52,16.700002,85.4,1026.42,0.15,0,0,0,0.044441
2023/06/05 03:06:00.003,n,231,2.88,1.8,4.32,16.700002,85.5,1026.42,0.15,0,0,0,0.046158
2023/06/05 03:07:00.009,n,218,3.24,2.88,3.6,16.700002,85.4,1026.32,0.15,0,0,0,0.044441
2023/06/05 03:08:00.006,n,222,1.8,0.72,2.88,16.700002,85.4,1026.32,0.15,0,0,0,0.044441
2023/06/05 03:09:00.007,n,266,3.24,2.88,4.32,16.700002,85.5,1026.32,0.15,0,0,0,0.046158
2023/06/05 03:10:00.001,n,225,1.44,0.72,1.8,16.700002,85.5,1026.32,0.15,0,0,0,0.043526
2023/06/05 03:11:00.002,n,171,1.8,0.72,2.88,16.700002,85.5,1026.32,0.15,0,0,0,0.047035
2023/06/05 03:12:00.003,n,212,1.08,0.36,2.16,16.700002,85.5,1026.32,0.15,0,0,0,0.047874
2023/06/05 03:13:00.003,n,169,4.68,4.32,5.4,16.700002,85.5,1026.32,0.15,0,0,0,0.04528
2023/06/05 03:14:00.001,n,117,1.08,0.72,1.8,16.700002,85.5,1026.32,0.15,0,0,0,0.04528
2023/06/05 03:15:00.005,n,97,2.16,0.72,4.32,16.6,85.6,1026.32,0.15,0,0,0,0.041809
2023/06/05 03:16:00.008,n,119,1.08,0.72,1.8,16.6,85.6,1026.32,0.15,0,0,0,0.040932
2023/06/05 03:17:00.008,n,264,2.16,2.16,2.88,16.6,85.6,1026.42,0.15,0,0,0,0.043526
2023/06/05 03:18:00.014,n,264,2.16,1.8,2.52,16.6,85.7,1026.42,0.15,0,0,0,0.047874
2023/06/05 03:19:00.001,n,273,3.96,3.6,4.32,16.6,85.7,1026.42,0.15,0,0,0,0.042648
2023/06/05 03:20:00.004,n,255,0.72,0.36,1.08,16.6,85.7,1026.42,0.15,0,0,0,0.044441
2023/06/05 03:21:00.020,n,43,0,0,0.36,16.700002,85.8,1026.42,0.15,0,0,0,0.042648
2023/06/05 03:22:00.001,n,109,2.16,2.16,2.52,16.700002,85.7,1026.52,0.15,0,0,0,0.042648
2023/06/05 03:23:00.005,n,210,0.36,0,1.08,16.6,85.6,1026.42,0.15,0,0,0,0.043526
2023/06/05 03:24:00.004,n,217,1.44,1.44,1.8,16.6,85.6,1026.42,0.15,0,0,0,0.041809
2023/06/05 03:25:00.004,n,243,3.24,2.88,3.6,16.6,85.6,1026.42,0.15,0,0,0,0.04528
2023/06/05 03:26:00.024,n,215,1.8,1.8,2.16,16.6,85.6,1026.42,0.15,0,0,0,0.041809
2023/06/05 03:27:00.018,n,268,3.24,2.52,3.6,16.6,85.6,1026.42,0.15,0,0,0,0.040932
2023/06/05 03:28:00.005,n,318,0.72,0.72,0.72,16.6,85.8,1026.42,0.15,0,0,0,0.041809
2023/06/05 03:29:00.005,n,186,1.08,0.72,1.44,16.6,85.7,1026.42,0.15,0,0,0,0.040054
2023/06/05 03:30:00.001,n,190,0.72,0,1.44,16.6,85.7,1026.42,0.15,0,0,0,0.0383
2023/06/05 03:31:00.008,n,167,3.24,2.52,3.96,16.6,85.7,1026.42,0.15,0,0,0,0.041809
2023/06/05 03:32:00.002,n,173,3.6,2.88,4.32,16.6,85.8,1026.52,0.15,0,0,0,0.039177
2023/06/05 03:33:00.005,n,160,2.16,2.16,2.52,16.6,85.8,1026.52,0.15,0,0,0,0.042648
2023/06/05 03:34:00.010,n,250,2.52,2.16,3.24,16.5,85.8,1026.42,0.15,0,0,0,0.039177
2023/06/05 03:35:00.017,n,177,0.72,0.36,1.44,16.5,85.8,1026.42,0.15,0,0,0,0.0383
2023/06/05 03:36:00.018,n,248,1.08,0.36,1.44,16.5,85.9,1026.42,0.15,0,0,0,0.0383
2023/06/05 03:37:00.002,n,261,2.52,1.8,2.88,16.5,85.9,1026.32,0.15,0,0,0,0.040932
2023/06/05 03:38:00.001,n,182,0.72,0,1.08,16.5,85.9,1026.32,0.15,0,0,0,0.040054
2023/06/05 03:39:00.001,n,267,3.96,3.96,4.32,16.5,85.9,1026.32,0.15,0,0,0,0.039177
2023/06/05 03:40:00.007,n,255,2.16,2.16,2.88,16.5,85.9,1026.32,0.15,0,0,0,0.03746
2023/06/05 03:41:00.001,n,299,4.32,3.6,4.68,16.5,85.9,1026.32,0.15,0,0,0,0.040932
2023/06/05 03:42:00.003,n,281,3.6,3.24,4.68,16.5,85.9,1026.32,0.15,0,0,0,0.040932
2023/06/05 03:43:00.004,n,277,3.96,3.24,4.68,16.5,86,1026.32,0.15,0,0,0,0.040054
2023/06/05 03:44:00.005,n,221,1.44,1.08,1.8,16.5,85.9,1026.32,0.15,0,0,0,0.040932
2023/06/05 03:45:00.016,n,234,2.16,1.8,2.52,16.5,85.8,1026.32,0.15,0,0,0,0.036583
2023/06/05 03:46:00.003,n,244,2.16,1.44,2.52,16.5,85.8,1026.32,0.15,0,0,0,0.0383
2023/06/05 03:47:00.002,n,301,2.16,1.8,2.88,16.5,85.9,1026.32,0.15,0,0,0,0.03746
2023/06/05 03:48:00.001,n,322,2.16,1.8,2.88,16.5,86,1026.32,0.15,0,0,0,0.039177
2023/06/05 03:49:00.001,n,247,1.8,1.8,2.16,16.5,86.1,1026.32,0.15,0,0,0,0.035706
2023/06/05 03:50:00.007,n,266,2.52,2.16,2.88,16.5,86.1,1026.32,0.15,0,0,0,0.0383
2023/06/05 03:51:00.007,n,225,1.08,0.36,2.16,16.5,86,1026.32,0.15,0,0,0,0.040932
2023/06/05 03:52:00.002,n,252,1.08,0.36,1.44,16.5,85.9,1026.42,0.15,0,0,0,0.036583
2023/06/05 03:53:00.011,n,248,1.8,1.08,1.8,16.5,86.2,1026.42,0.15,0,0,0,0.0383
2023/06/05 03:54:00.008,n,256,3.6,2.52,3.96,16.5,86.3,1026.52,0.15,0,0,0,0.0383
2023/06/05 03:55:00.001,n,224,1.44,1.08,1.8,16.5,86,1026.52,0.15,0,0,0,0.034866
2023/06/05 03:56:00.001,n,204,0.72,0.36,1.08,16.5,86,1026.52,0.15,0,0,0,0.036583
2023/06/05 03:57:00.001,n,261,2.16,0.36,3.24,16.5,86,1026.52,0.15,0,0,0,0.03746
2023/06/05 03:58:00.002,n,166,0.72,0.36,0.72,16.5,86.1,1026.52,0.15,0,0,0,0.0383
2023/06/05 03:59:00.001,n,303,1.08,0.36,1.8,16.5,86,1026.52,0.15,0,0,0,0.03746
2023/06/05 04:00:00.016,n,337,2.16,1.8,2.52,16.5,86.2,1026.52,0.15,0,0,0,0.036583
2023/06/05 04:01:00.009,n,301,2.16,1.8,2.52,16.5,86.1,1026.52,0.15,0,0,0,0.036583
2023/06/05 04:02:00.020,n,346,0.72,0.36,0.72,16.5,86,1026.52,0.15,0,0,0,0.033951
2023/06/05 04:03:00.016,n,110,1.8,1.44,1.8,16.5,86,1026.52,0.15,0,0,0,0.035706
2023/06/05 04:04:00.002,n,105,1.44,1.08,2.52,16.4,85.7,1026.52,0.15,0,0,0,0.036583
2023/06/05 04:05:00.002,n,243,0,0,0.36,16.4,85.7,1026.52,0.15,0,0,0,0.034866
2023/06/05 04:06:00.001,n,205,2.88,2.16,2.88,16.3,85.8,1026.42,0.15,0,0,0,0.034866
2023/06/05 04:07:00.001,n,225,1.44,1.08,1.44,16.3,85.9,1026.42,0.15,0,0,0,0.034866
2023/06/05 04:08:00.003,n,156,2.52,1.8,2.52,16.3,85.9,1026.42,0.15,0,0,0,0.035706
2023/06/05 04:09:00.015,n,157,3.96,2.88,5.04,16.3,86,1026.42,0.15,0,0,0,0.035706
2023/06/05 04:10:00.008,n,168,2.52,1.8,3.24,16.3,86,1026.32,0.15,0,0,0,0.033073
2023/06/05 04:11:00.019,n,133,3.24,1.08,3.96,16.3,86,1026.32,0.15,0,0,0,0.033951
2023/06/05 04:12:00.013,n,181,1.8,0.72,3.6,16.3,86,1026.22,0.15,0,0,0,0.030479
2023/06/05 04:13:00.001,n,148,6.12,5.04,7.56,16.3,86.1,1026.22,0.15,0,0,0,0.032234
2023/06/05 04:14:00.002,n,162,6.12,4.68,7.56,16.3,86.1,1026.32,0.15,0,0,0,0.034866
2023/06/05 04:15:00.001,n,178,5.4,5.04,5.76,16.3,86,1026.32,0.15,0,0,0,0.033951
2023/06/05 04:16:00.001,n,186,2.88,1.8,3.24,16.200002,86,1026.32,0.15,0,0,0,0.031357
2023/06/05 04:17:00.001,n,179,4.32,3.24,5.04,16.200002,86,1026.42,0.15,0,0,0,0.02964
2023/06/05 04:18:00.008,n,161,5.76,5.04,6.84,16.200002,86.1,1026.42,0.15,0,0,0,0.032234
2023/06/05 04:19:00.002,n,201,4.68,4.32,4.68,16.200002,86.2,1026.42,0.15,0,0,0,0.031357
2023/06/05 04:20:00.008,n,148,5.04,3.96,5.4,16.200002,86.2,1026.42,0.15,0,0,0,0.02964
2023/06/05 04:21:00.011,n,223,2.88,2.16,3.24,16.200002,86.2,1026.42,0.15,0,0,0,0.031357
2023/06/05 04:22:00.003,n,124,0.72,0.36,1.44,16.200002,86.2,1026.42,0.15,0,0,0,0.028725
2023/06/05 04:23:00.001,n,241,3.24,3.24,3.6,16.200002,86.2,1026.52,0.15,0,0,0,0.030479
2023/06/05 04:24:00.003,n,176,2.16,1.8,2.16,16.200002,86.2,1026.52,0.15,0,0,0,0.031357
2023/06/05 04:25:00.005,n,266,1.8,1.08,2.52,16.200002,86.2,1026.52,0.15,0,0,0,0.031357
2023/06/05 04:26:00.003,n,65,1.44,0.36,2.52,16.200002,86.3,1026.62,0.15,0,0,0,0.033073
2023/06/05 04:27:00.004,n,252,0.72,0.36,0.72,16.200002,86.3,1026.62,0.15,0,0,0,0.027008
2023/06/05 04:28:00.005,n,338,3.24,1.8,4.68,16.200002,86.3,1026.62,0.15,0,0,0,0.032234
2023/06/05 04:29:00.014,n,253,2.88,2.16,3.24,16.3,86.6,1026.62,0.15,0,0,0,0.031357
2023/06/05 04:30:00.013,n,263,2.16,1.8,2.88,16.3,86.5,1026.62,0.15,0,0,0,0.028725
2023/06/05 04:31:00.001,n,234,2.16,0.36,3.6,16.3,86.5,1026.62,0.15,0,0,0,0.028725
2023/06/05 04:32:00.002,n,226,2.52,2.16,2.52,16.3,86.3,1026.72,0.15,0,0,0,0.027008
2023/06/05 04:33:00.001,n,282,3.6,2.88,3.96,16.3,86.3,1026.72,0.15,0,0,0,0.02964
2023/06/05 04:34:00.001,n,186,3.96,1.08,6.48,16.3,86.3,1026.82,0.15,0,0,0,0.030479
2023/06/05 04:35:00.001,n,234,3.96,2.88,5.04,16.3,86.3,1026.82,0.15,0,0,0,0.025291
2023/06/05 04:36:00.009,n,222,1.44,1.08,1.8,16.3,86.3,1026.72,0.15,0,0,0,0.028725
2023/06/05 04:37:00.012,n,179,0.36,0.36,0.72,16.3,86.3,1026.72,0.15,0,0,0,0.027885
2023/06/05 04:38:00.012,n,251,3.96,3.24,4.68,16.3,86.4,1026.72,0.15,0,0,0,0.028725
2023/06/05 04:39:00.003,n,18,1.44,0.72,2.16,16.3,86.4,1026.72,0.15,0,0,0,0.02964
2023/06/05 04:40:00.003,n,180,0.72,0,1.08,16.3,86.5,1026.82,0.15,0,0,0,0.030479
2023/06/05 04:41:00.004,n,258,2.52,1.44,3.6,16.3,86.3,1026.82,0.15,0,0,0,0.027885
2023/06/05 04:42:00.010,n,286,4.68,4.32,6.48,16.3,86.4,1026.72,0.15,0,0,0,0.030479
2023/06/05 04:43:00.008,n,291,2.52,1.8,3.6,16.3,86.3,1026.82,0.15,0,0,0,0.028725
2023/06/05 04:44:00.001,n,261,5.4,5.04,5.76,16.3,86.2,1026.82,0.15,0,0,0,0.030479